Cloud_Cover
100 100 100 100 100 100 100 100 100 100 83 99 96 100 100 6 66 42 7 0 0 0 100 95 93 94 89 99 100 100 100 100 100 100 100 95 91 99 83 100 100 94 88 100 96
67 100 100 100 100 100 100 100 100 94 83 100 100 100 100 100 100 100 6 5 0 0 8 65 85 78 100 99 64 99 68 100 100 100 100 100 100 73 96 100 100 100 100 100 100
42 87 99 100 100 100 100 100 78 93 98 100 100 100 99 100 99 5 1 0 0 0 0 17 79 100 100 100 96 53 47 100 100 100 100 100 100 62 99 100 100 99 100 100 100
19 42 53 100 97 84 31 99 100 100 100 96 100 97 100 100 21 5 9 0 0 2 0 0 33 100 85 100 100 96 60 100 100 100 100 100 100 92 100 100 100 34 100 100 100
82 6 8 18 8 13 67 84 100 82 27 78 100 100 100 99 39 5 0 0 0 0 0 0 0 100 100 39 100 100 92 100 100 100 100 100 100 84 100 100 100 77 100 100 100
18 7 53 23 80 85 28 26 100 100 100 84 39 55 87 98 0 0 0 0 0 0 0 0 4 42 100 100 50 100 100 100 100 100 100 100 100 100 100 100 100 100 100 100 100
5 5 20 8 62 100 100 9 99 100 100 94 21 31 75 15 0 0 0 0 0 0 0 0 0 15 35 100 100 15 100 100 100 100 100 100 100 100 100 85 100 100 100 100 100
5 0 5 5 74 99 100 100 100 62 90 5 0 26 100 0 0 0 0 0 0 0 0 0 0 0 13 100 97 93 98 100 100 100 94 100 100 100 100 100 100 100 100 100 100
5 5 5 37 100 100 99 100 100 92 75 4 90 97 93 2 0 0 0 0 0 0 0 0 0 10 0 100 100 100 97 100 100 100 98 61 100 100 100 100 100 99 100 100 100
7 86 99 99 100 100 100 100 100 100 23 84 100 99 49 3 5 5 17 5 15 5 0 8 4 22 0 99 100 100 24 100 100 100 100 59 99 100 100 100 100 99 99 100 100
66 100 100 100 100 100 100 100 100 81 55 5 3 4 1 5 29 30 36 100 95 75 88 34 94 67 0 14 64 100 94 100 100 100 100 95 100 100 83 100 100 100 100 100 100
71 100 100 100 100 100 100 100 18 92 90 3 5 5 5 100 100 100 18 66 100 100 100 100 47 1 0 0 100 100 100 100 100 100 100 100 100 100 63 100 100 100 100 100 100
100 100 100 100 100 100 100 100 100 100 61 11 3 32 85 100 100 78 31 69 100 91 88 92 6 0 0 0 100 100 100 100 100 100 100 100 100 100 5 75 100 100 100 100 100
100 100 100 100 100 100 100 100 98 89 100 40 7 70 90 100 100 76 100 100 100 100 100 99 56 78 4 5 100 98 64 100 100 100 100 100 85 100 92 99 100 100 100 100 100
10 100 100 100 100 100 96 58 20 100 79 2 5 5 6 100 98 100 100 100 100 100 100 41 7 11 98 11 47 100 100 100 100 100 100 100 100 100 100 100 100 100 100 100 100
100 100 100 100 100 100 76 2 100 96 60 13 5 5 83 99 100 100 100 100 100 100 100 42 40 72 6 97 100 100 100 100 100 100 100 100 100 100 100 100 100 100 100 100 100
100 100 100 100 100 59 8 51 92 88 4 4 43 44 100 100 100 100 100 100 100 100 100 100 100 100 100 100 100 100 100 100 100 100 100 100 97 100 100 100 100 100 100 100 100
100 100 79 9 5 5 2 19 66 6 5 6 53 82 100 100 100 100 100 100 100 100 100 100 100 100 100 100 42 100 100 100 100 100 100 100 100 100 100 100 100 91 100 100 100
100 64 5 0 0 0 61 32 11 94 64 100 84 99 73 100 100 100 100 100 100 100 100 100 100 100 100 32 96 100 100 100 100 100 100 100 51 100 100 100 100 100 100 100 100
62 5 3 0 0 52 5 35 50 100 100 100 100 76 100 100 100 100 100 100 100 100 100 100 94 100 100 78 100 100 100 100 100 100 100 100 100 100 100 100 100 100 100 100 100
4 5 1 0 0 4 6 5 81 100 95 100 100 100 100 100 100 100 100 100 100 100 100 100 99 100 100 100 100 100 100 100 100 100 100 100 100 100 100 100 81 100 100 96 100
44 5 0 0 11 58 37 5 98 100 74 85 100 100 100 100 100 100 100 100 100 100 100 100 100 100 100 100 100 100 100 100 100 100 100 100 100 100 100 100 100 100 100 100 99
33 53 1 0 5 71 98 10 100 100 87 68 80 100 100 100 100 100 100 100 100 100 100 100 100 100 100 100 100 100 100 100 100 100 100 100 100 100 100 100 100 89 97 89 100
68 5 4 3 6 12 42 16 89 100 96 94 94 89 100 97 100 100 100 100 100 100 100 100 100 100 100 100 100 100 100 100 100 100 100 100 100 100 100 100 100 100 100 100 100
54 52 8 4 6 9 5 5 56 100 46 98 62 96 100 100 99 100 100 100 100 100 100 100 100 100 100 100 100 100 100 100 100 100 100 100 100 100 100 100 100 100 100 100 100
93 9 94 81 5 6 53 5 5 31 42 35 100 85 6 100 100 100 100 100 100 100 100 100 100 100 100 100 100 100 100 100 100 100 100 100 100 100 100 100 100 100 100 100 100
98 25 5 65 16 14 18 5 47 66 25 53 39 96 91 47 21 55 100 100 100 100 100 100 100 100 100 100 100 100 100 100 100 100 100 100 100 100 100 100 100 100 100 100 100